Location: Richmond
(37.5536°N, 77.4606°W)
Time: 16:44:45
(UTC-04:00)

ISS - Visible Passes

Search period start: 25 May 2016 00:00
Search period end: 04 June 2016 00:00
Orbit: 402 x 404 km, 51.6° (Epoch: 25 May)

Date Brightness Start Highest point End Pass type
(mag) Time Alt. Az. Time Alt. Az. Time Alt. Az.
25 May 0.3 00:55:47 11° N 00:55:47 11° N 00:56:04 10° N visible
25 May 0.0 04:08:27 10° N 04:10:12 14° NNE 04:11:55 10° NE visible
26 May -0.1 00:03:16 13° N 00:03:16 13° N 00:03:58 10° NNE visible
26 May -1.7 04:51:13 10° NW 04:54:19 38° NE 04:57:22 10° ESE visible
26 May -2.6 21:29:25 10° SSW 21:32:21 31° SE 21:35:17 10° ENE visible
26 May -1.0 23:06:01 10° W 23:08:48 25° NNW 23:11:36 10° NNE visible
27 May -0.7 03:58:46 10° NNW 04:01:25 22° NNE 04:04:04 10° E visible
27 May -2.2 22:12:48 10° WSW 22:15:56 45° NW 22:19:05 10° NE visible
27 May 0.3 23:52:09 10° NNW 23:53:02 11° NNW 23:53:56 10° N visible
28 May 0.0 03:06:27 10° NNW 03:08:26 15° NNE 03:10:25 10° ENE visible
28 May -3.4 04:42:00 10° NW 04:45:16 86° SW 04:48:30 10° SE visible
28 May -3.4 21:19:53 10° SW 21:23:10 87° ESE 21:26:25 10° NE visible
28 May 0.0 22:58:00 10° WNW 22:59:58 15° NNW 23:01:57 10° NNE visible
29 May 0.3 02:14:28 10° N 02:15:22 11° NNE 02:16:17 10° NE visible
29 May -2.2 03:49:19 10° NW 03:52:28 46° NE 03:55:37 10° ESE visible
29 May -0.6 22:04:20 10° W 22:06:59 22° NNW 22:09:38 10° NNE visible
30 May -1.1 02:56:48 10° NNW 02:59:36 26° NNE 03:02:23 10° E visible
30 May -2.6 04:33:07 10° WNW 04:36:03 31° SW 04:38:57 10° SSE visible
30 May -1.6 21:11:00 10° WSW 21:14:04 37° NW 21:17:09 10° NE visible
31 May -0.2 02:04:24 10° NNW 02:05:55 16° N 02:05:55 16° N visible
31 May 0.0 21:56:26 10° NW 21:58:09 13° NNW 21:59:53 10° N visible
01 Jun 0.1 01:12:14 10° N 01:13:30 12° NNE 01:13:30 12° NNE visible
01 Jun -0.3 21:02:39 10° WNW 21:05:07 20° NNW 21:07:36 10° NNE visible
03 Jun 0.0 01:02:20 10° NNW 01:02:55 13° NNW 01:02:55 13° NNW visible
03 Jun -0.1 20:54:51 10° NW 20:56:17 12° NNW 20:57:43 10° N visible
